Jackson Hawkins Field, MS

12:43 AM CST on November 13, 2019 (GMT -0600)
Hawkins

Weather History for KHKS - October, 2019

Change the Weather History Date:

Wednesday, October 23, 2019

  Actual Average (KJAN) Record (KJAN)
Temperature  
Mean Temperature 59 °F -  
Max Temperature 74 °F 76 °F 95 °F (1899)
Min Temperature 43 °F 50 °F 32 °F (1916)
Degree Days  
Heating Degree Days 6    
Month to date heating degree days 39  
Growing Degree Days 8 (Base 50)    
Moisture  
Dew Point 42 °F    
Average Humidity 59    
Maximum Humidity 92    
Minimum Humidity 25    
Precipitation  
Precipitation 0.00 in - - ()
Month to date precipitation 5.67  
Year to date precipitation 46.68  
Sea Level Pressure  
Sea Level Pressure 30.15 in    
Wind  
Wind Speed 2 mph (SE)    
Max Wind Speed 9 mph    
Max Gust Speed 14 mph    
Visibility 10 miles    
Events      
Averages and records for this station are not official NWS values.
T = Trace of Precipitation, MM = Missing Value Source: NWS Daily Summary

Daily Weather History Graph

Daily Weather History Graph

Search for Another Location

Airport or City:

Astronomy

Oct. 23, 2019 Rise Set
Actual Time 7:10 AM CDT 6:19 PM CDT
Civil Twilight 6:45 AM CDT 6:44 PM CDT
Nautical Twilight 6:16 AM CDT 7:13 PM CDT
Astronomical Twilight 5:48 AM CDT 7:41 PM CDT
Moon 1:54 AM CDT (10/23) 3:47 PM CDT (10/23)
Length of Visible Light 11h 58m
Length of Day
11h 08m
Waning Crescent, 26% of the Moon is Illuminated
Oct 23
Waning Crescent
Oct 27
New
Nov 4
First Quarter
Nov 12
Full
Nov 19
Last Quarter

Hourly Weather History & Observations

Time (CDT) Temp. Dew Point Humidity Pressure Visibility Wind Dir Wind Speed Gust Speed Precip Events Conditions
12:53 AM 48.0 °F 44.1 °F 86% 30.15 in 10.0 mi Calm Calm - N/A   Clear
1:53 AM 46.9 °F 43.0 °F 86% 30.15 in 10.0 mi Calm Calm - N/A   Clear
2:53 AM 46.0 °F 43.0 °F 89% 30.15 in 10.0 mi Calm Calm - N/A   Clear
3:53 AM 45.0 °F 42.1 °F 90% 30.15 in 10.0 mi Calm Calm - N/A   Clear
4:53 AM 45.0 °F 42.1 °F 90% 30.16 in 5.0 mi Calm Calm - N/A   Clear
5:53 AM 44.1 °F 41.0 °F 89% 30.17 in 10.0 mi Calm Calm - N/A   Clear
6:53 AM 44.1 °F 41.0 °F 89% 30.17 in 10.0 mi Calm Calm - N/A   Clear
7:53 AM 45.0 °F 42.1 °F 90% 30.17 in 10.0 mi Calm Calm - N/A   Clear
8:53 AM 52.0 °F 46.9 °F 83% 30.18 in 10.0 mi Calm Calm - N/A   Clear
9:53 AM 60.1 °F 46.9 °F 62% 30.20 in 10.0 mi SE 3.5 mph - N/A   Clear
10:53 AM 66.0 °F 41.0 °F 40% 30.20 in 10.0 mi Variable 3.5 mph - N/A   Clear
11:53 AM 69.1 °F 39.0 °F 33% 30.20 in 10.0 mi Variable 4.6 mph - N/A   Clear
12:53 PM 72.0 °F 37.0 °F 28% 30.18 in 10.0 mi Variable 3.5 mph - N/A   Clear
1:53 PM 72.0 °F 37.0 °F 28% 30.15 in 10.0 mi South 6.9 mph - N/A   Clear
2:53 PM 73.0 °F 37.0 °F 27% 30.13 in 10.0 mi Variable 4.6 mph - N/A   Clear
3:53 PM 73.0 °F 36.0 °F 26% 30.12 in 10.0 mi Variable 3.5 mph - N/A   Clear
4:53 PM 72.0 °F 37.0 °F 28% 30.11 in 10.0 mi ESE 5.8 mph - N/A   Clear
5:53 PM 69.1 °F 41.0 °F 36% 30.10 in 10.0 mi ENE 3.5 mph - N/A   Clear
6:53 PM 59.0 °F 46.0 °F 62% 30.11 in 10.0 mi Calm Calm - N/A   Clear
7:53 PM 57.0 °F 46.0 °F 67% 30.13 in 10.0 mi Calm Calm - N/A   Clear
8:53 PM 54.0 °F 46.9 °F 77% 30.14 in 10.0 mi Calm Calm - N/A   Clear
9:53 PM 53.1 °F 46.9 °F 80% 30.15 in 10.0 mi Calm Calm - N/A   Clear
10:53 PM 52.0 °F 46.0 °F 80% 30.15 in 10.0 mi Calm Calm - N/A   Clear
11:53 PM 50.0 °F 46.0 °F 86% 30.14 in 10.0 mi Calm Calm - N/A   Clear